{"data":{"norad_id":49393,"epoch":"2026-05-25T03:27:30.905280Z","epoch_age_seconds":59634,"freshness":"FRESH","line1":"1 49393U 21101D   26145.14410770  .00010375  00000+0  43043-3 0  9997","line2":"2 49393  35.0054  49.8661 0007382 175.4164 184.6620 15.23069948253496","mean_motion":15.23069948,"eccentricity":0.0007382,"inclination_deg":35.0054,"raan_deg":49.8661,"arg_perigee_deg":175.4164,"mean_anomaly_deg":184.662,"bstar":0.00043043,"rev_number":25349,"period_min":94.545887527419,"perigee_km":491.51220658488,"apogee_km":501.66204928737,"semimajor_km":6874.7241279361,"source":"CELESTRAK","updated_at":"2026-05-25T13:37:57.192688Z"}}